Regional Weather Roundup
Issued by NWS

Home | Current Version | Previous Version | Text Only | Print | Product List | Glossary On
Versions: 1 2 3 4 5 6 7 8 9 10 11 12 13 14 15 16 17 18 19 20 21 22 23 24 25 26 27 28 29 30 31 32 33 34 35 36 37 38 39 40 41 42 43 44 45 46 47 48 49 50
000
ASUS46 KSEW 022210
RWRWA

WASHINGTON REGIONAL WEATHER ROUNDUP
NATIONAL WEATHER SERVICE SEATTLE WA
300 PM PDT SUN AUG 02 2015

NOTE:"FAIR" INDICATES FEW OR NO CLOUDS BELOW 12,000 FEET WITH NO
SIGNIFICANT WEATHER AND/OR OBSTRUCTIONS TO VISIBILITY.

WAZ505-507>509-022300-
SEATTLE, TACOMA, EVERETT, AND VICINITY

CITY           SKY/WX    TMP DP  RH WIND       PRES   REMARKS
EVERETT        PTSUNNY   81  56  42 W6        29.94F
BOEING FIELD   PTSUNNY   83  52  34 VRB5      29.91F
RENTON         MOSUNNY   82  55  39 N3        29.91F
SEATAC AIRPORT PTSUNNY   81  53  37 SW5       29.94F
JBLM-MCCHORD   PTSUNNY   84  53  33 VRB6      29.92F
PUYALLUP       FAIR      86  50  28 CALM      29.94S
BREMERTON      MOSUNNY   88  55  33 N6        29.95F
JBLM-FT LEWIS  PTSUNNY   85  51  31 NW8       29.92F
TACOMA NARROWS MOSUNNY   83  54  36 VRB3      29.93F
$$

WAZ001-503-506-510-514-515-022300-
NORTH INTERIOR

CITY           SKY/WX    TMP DP  RH WIND       PRES   REMARKS
BELLINGHAM     MOSUNNY   78  58  49 W6        29.91F
FRIDAY HARBOR  SUNNY     78  55  44 SW3       29.93F
EASTSOUND      MOSUNNY   72  59  64 N7        29.91S
PORT ANGELES   SUNNY     71  54  54 N7        29.95S
PORT TOWNSEND  FAIR      77  55  47 W7        29.91F
NAS WHIDBEY    PTSUNNY   65  54  67 W6        29.96F
ARLINGTON      PTSUNNY   86  57  37 NW10      29.91S
BURLINGTON     SUNNY     82  57  42 VRB5      29.91S
$$

WAZ020-022-039-040-504-511-512-022300-
SOUTHWEST INTERIOR

CITY           SKY/WX    TMP DP  RH WIND       PRES   REMARKS
SHELTON        MOSUNNY   88  52  29 VRB6      29.89F
OLYMPIA        PTSUNNY   84  51  31 CALM      29.92F
CHEHALIS       FAIR      88  55  33 NE8       29.91F
KELSO          CLOUDY    82  57  42 NW8       29.94F
VANCOUVER      CLOUDY    77  53  43 SE5       29.91F
SCAPPOOSE, OR  CLOUDY    81  55  40 CALM      29.91F
PORTLAND, OR   CLOUDY    76  55  48 E6        29.92F
$$

WAZ021-516-517-022300-
WASHINGTON COAST

CITY           SKY/WX    TMP DP  RH WIND       PRES   REMARKS
FORKS          SUNNY     77  59  53 SW12      29.95S
HOQUIAM        SUNNY     67  57  70 SW15      29.97S
ASTORIA, OR    CLOUDY    69  59  70 W8        29.96S
$$

WAZ019-023-024-040-518-519-022300-
CASCADE MOUNTAINS AND COLUMBIA GORGE

CITY           SKY/WX    TMP DP  RH WIND       PRES   REMARKS
TROUTDALE, OR  CLOUDY    78  54  43 N3        29.90F
THE DALLES, OR PTSUNNY   87  49  26 NW23G30   29.77F
$$

WAZ026-027-041>044-520-521-022300-
EAST SLOPES

CITY           SKY/WX    TMP DP  RH WIND       PRES   REMARKS
OMAK           MOSUNNY   99  30   9 S7        29.80F HX  93
WENATCHEE      SUNNY    100  26   7 SE8       29.79F HX  93
ELLENSBURG     MOSUNNY  101  22   6 NW7       29.85F HX  94
YAKIMA         MOSUNNY  102  39  11 VRB7      29.80F HX  97
$$

WAZ028-034-035-022300-
COLUMBIA BASIN

CITY           SKY/WX    TMP DP  RH WIND       PRES   REMARKS
EPHRATA        CLOUDY    98  40  13 S9        29.81F HAZE    HX  93
MOSES LAKE     MOSUNNY   98  34  10 VRB6      29.82F HAZE    HX  92
PASCO          MOSUNNY  101  34   9 CALM      29.77F HX  95
HERMISTON, OR  MOSUNNY   96  37  12 W5        29.78F HX  91
$$

WAZ036>038-022300-
NORTHEAST WASHINGTON

CITY           SKY/WX    TMP DP  RH WIND       PRES   REMARKS
SPOKANE GEIGER CLOUDY    97  19   6 SW8       29.88F HX  90
SPOKANE FELTS  MOSUNNY   98  26   7 W8        29.85F SMOKE   HX  91
FAIRCHILD AFB  SUNNY     97  16   5 S7        29.89F HX  90
COEURDALENE,ID SUNNY     99  34  10 SW8       29.85F HX  93
DEER PARK      SUNNY     93  35  13 CALM      29.89F HAZE
$$

WAZ029>033-022300-
SOUTHEAST WASHINGTON

CITY           SKY/WX    TMP DP  RH WIND       PRES   REMARKS
PULLMAN        SUNNY     97  27   8 W10       29.92F HX  91
LEWISTON, ID   SUNNY    102  24   6 CALM      29.81F HX  95
WALLA WALLA    SUNNY    100  31   9 NW6       29.81F HX  94
PENDLETON, OR  MOSUNNY   99  31   9 W8        29.83F HX  93
$$



USA.gov is the U.S. government's official web portal to all federal, state and local government web resources and services.